Regional Weather Roundup
Issued by NWS New Orleans/Baton Rouge, LA

Home | Current Version | Previous Version | Text Only | Print | Product List | Glossary On
Versions: 1 2 3 4 5 6 7 8 9 10 11 12 13 14 15 16 17 18 19 20 21 22 23 24 25 26 27 28 29 30 31 32 33 34 35 36 37 38 39 40 41 42 43 44 45 46 47 48 49 50
000
ASUS44 KLIX 271810
RWRLIX
NEW ORLEANS REGIONAL WEATHER ROUNDUP
NATIONAL WEATHER SERVICE NEW ORLEANS LA
1200 PM CST TUE JAN 27 2015

NOTE: "FAIR" INDICATES FEW OR NO CLOUDS BELOW 12,000 FEET WITH NO
      SIGNIFICANT WEATHER AND/OR OBSTRUCTIONS TO VISIBILITY.
      SKY/WX - SKY CONDITION AND SIGNIFICANT WEATHER.
      TMP - AIR TEMPERATURE.     DP    - DEWPOINT TEMPERATURE.
      RH  - RELATIVE HUMIDITY.   PRES  - PRESSURE.
      HI  - HEAT INDEX.          WCI   - WIND CHILL INDEX.

*  THESE STATIONS ARE NOT NWS OR FAA STATIONS AND ARE NOT UNDER
   NWS QUALITY CONTROL.

LAZ038-040-048-061>063-065>067-069-271900-
SOUTHEAST LOUISIANA

CITY           SKY/WX    TMP DP  RH WIND       PRES   REMARKS
N.O. AUDUBON     N/A     70  44  39 MISG        N/A
6HR MIN TEMP:  44; 6HR MAX TEMP:  70;

N.O. INTL ARPT MOSUNNY   65  40  39 N6        30.12F
6HR MIN TEMP:  45; 6HR MAX TEMP:  66;

N.O. LAKEFRONT SUNNY     58  47  66 W7        30.13F
6HR MIN TEMP:  53; 6HR MAX TEMP:  58;

N.O. DOWNTOWN*   N/A     64  39  39 N7        30.13F
6HR MIN TEMP:  48; 6HR MAX TEMP:  64;

SLIDELL        SUNNY     71  39  31 N9        30.10F
6HR MIN TEMP:  45; 6HR MAX TEMP:  71;

BATON ROUGE    SUNNY     71  38  29 N7        30.12F
6HR MIN TEMP:  39; 6HR MAX TEMP:  71;

BOOTHVILLE     SUNNY     61  45  55 VRB7      30.13F
6HR MIN TEMP:  50; 6HR MAX TEMP:  62;

BELLE CHASSE   MOSUNNY   69  39  33 VRB6      30.11F
6HR MIN TEMP:  42; 6HR MAX TEMP:  69;

BOGALUSA*        N/A     69  37  30 N9        30.12F
6HR MIN TEMP:  36; 6HR MAX TEMP:  69;

GALLIANO*      CLEAR     69  44  39 MISG      30.12F
6HR MIN TEMP:  51; 6HR MAX TEMP:  69;

NEW ROADS*       N/A     68  40  35 CALM      30.13F
6HR MIN TEMP:  37; 6HR MAX TEMP:  68;

GONZALES*        N/A     70  41  35 NW7       30.12F
6HR MIN TEMP:  41; 6HR MAX TEMP:  70;

HAMMOND*       SUNNY     70  36  28 NW3       30.13F
HOUMA*         SUNNY     70  45  40 N7        30.13F
PORT FOURCHON* CLEAR     66  45  45 N9        30.16F

$$

MSZ070-080>082-271900-
SOUTHERN MISSISSIPPI

CITY           SKY/WX    TMP DP  RH WIND       PRES   REMARKS
MCCOMB         SUNNY     66  37  34 N8        30.12F
6HR MIN TEMP:  41; 6HR MAX TEMP:  68;

GULFPORT       SUNNY     67  38  34 NW15      30.08F
6HR MIN TEMP:  43; 6HR MAX TEMP:  67;

BILOXI         SUNNY     67  39  35 NW7       30.08F
6HR MIN TEMP:  45; 6HR MAX TEMP:  67;

PASCAGOULA     SUNNY     66  38  35 NW12      30.08F
6HR MIN TEMP:  43; 6HR MAX TEMP:  66;

STENNIS ARPT*  SUNNY     66  34  30 NW8       30.10F

$$

COASTAL OBSERVATIONS
LAKE AND NEARSHORE STATIONS

STATION/POSITION TIME  TEMP    WIND        PRES    WAVE
                       AIR SEA DIR/SP/G            HT/PER
                 (UTC) (F)     (DEG/KT/KT) (MB)    (FT/S)
PASCAGOULA       1800   64     330/  9/ 13 1018.2
WAVELAND YACHT   1800   64     320/  8/ 11 1018.3
GRAND ISLE       1800   60 56  330/  5/  7 1020.6
SOUTHWEST PASS   1800   66 46  360/  8/ 10 1020.6
NEW CANAL        1800   56 53  260/  3/  4 1020.5
SHELL BEACH      1800   57 53  300/  7/  7 1019.8

OFFSHORE STATIONS

STATION/POSITION TIME  TEMP    WIND        PRES    WAVE
                       AIR SEA DIR/SP/G            HT/PER
                 (UTC) (F)     (DEG/KT/KT) (MB)    (FT/S)
64 S DAUPHIN ISL 1700   60 70  330/ 14/ 17 1019.7    4/ 7

$$



USA.gov is the U.S. government's official web portal to all federal, state and local government web resources and services.